Location: Nashville
(36.1660°N, 86.7840°W)
Time: 06:40:20
(UTC-05:00)

AO-109 - Pass Details

Date: 30 May 2022
Orbit: 477 x 502 km, 60.7° (Epoch: 27 June)

Event Time Altitude Azimuth Distance (km) Brightness Sun altitude
Rises 23:24:12 0° 318° (NW) 2,598 ? -28.9°
Reaches altitude 10° 23:26:26 10° 312° (NW) 1,712 ? -29.0°
Enters shadow 23:27:54 21° 302° (WNW) 1,168 ? -29.1°
